This is the latest recevied weather packets stored in our database for station/object S57PNX-8. If no packets are shown the sender has not sent any weather packets the latest 10 day(s).
| Time | Temp. | Humidity | Pressure | Rain* | Wind** | Luminosity | Snow |
|---|---|---|---|---|---|---|---|
| 1777471646 | 10° C | 92% | 1023 hPa | - | - | - | - |
| 1777470755 | 10.56° C | 80% | 1022.8 hPa | - | - | - | - |
| 1777469849 | 10.56° C | 79% | 1023 hPa | - | - | - | - |
| 1777468951 | 11.11° C | 76% | 1023 hPa | - | - | - | - |
| 1777468052 | 11.67° C | 77% | 1023 hPa | - | - | - | - |
| 1777467153 | 11.11° C | 76% | 1023.3 hPa | - | - | - | - |
| 1777466255 | 11.67° C | 75% | 1023.2 hPa | - | - | - | - |
| 1777465355 | 11.67° C | 74% | 1023.2 hPa | - | - | - | - |
| 1777464457 | 11.67° C | 73% | 1023 hPa | - | - | - | - |
| 1777463559 | 12.22° C | 72% | 1023 hPa | - | - | - | - |
| 1777462660 | 12.22° C | 73% | 1023 hPa | - | - | - | - |
| 1777461761 | 12.22° C | 74% | 1023 hPa | - | - | - | - |
| 1777460862 | 11.67° C | 75% | 1023 hPa | - | - | - | - |
| 1777459963 | 11.67° C | 78% | 1023.1 hPa | - | - | - | - |
| 1777459063 | 11.67° C | 78% | 1023 hPa | - | - | - | - |
| 1777458165 | 11.67° C | 78% | 1023.1 hPa | - | - | - | - |
| 1777457265 | 11.11° C | 77% | 1023.1 hPa | - | - | - | - |
| 1777456367 | 11.11° C | 74% | 1023.1 hPa | - | - | - | - |
| 1777455468 | 11.11° C | 74% | 1023 hPa | - | - | - | - |
| 1777454569 | 11.11° C | 75% | 1023 hPa | - | - | - | - |
| 1777453671 | 10.56° C | 76% | 1023.1 hPa | - | - | - | - |
| 1777452773 | 10.56° C | 76% | 1023 hPa | - | - | - | - |
| 1777451873 | 10.56° C | 76% | 1022.9 hPa | - | - | - | - |
| 1777450974 | 10.56° C | 75% | 1023 hPa | - | - | - | - |
| 1777450076 | 10.56° C | 74% | 1022.9 hPa | - | - | - | - |
* Rain since midnight (hover to see other rain measurements)
** Current wind speed in m/s (hover to see current wind gust speed)